📊 Raw Sensor Data
Showing records 44451 to 44475 of 85,036 total
| ID | Distance (ft) | Battery V | Battery A | Int Temp (°F) | Int Humid (%) | Ext Temp (°F) | Solar V | RSSI | SNR | Time Stamp |
|---|---|---|---|---|---|---|---|---|---|---|
| 40598 | 15.7 | 3.96 | 0 | 85 | 47 | 80 | 5.10 | -69 | 8 | 05/14/2025 06:00 PM |
| 40597 | 15.7 | 3.96 | 0 | 83 | 50 | 76 | 5.10 | -68 | 7 | 05/14/2025 05:45 PM |
| 40596 | 15.8 | 3.96 | 0 | 90 | 45 | 83 | 5.10 | -69 | 8 | 05/14/2025 05:30 PM |
| 40595 | 15.8 | 3.96 | 0 | 92 | 43 | 87 | 5.10 | -69 | 8 | 05/14/2025 05:15 PM |
| 40594 | 15.8 | 3.96 | 0 | 88 | 46 | 79 | 5.10 | -70 | 8 | 05/14/2025 05:00 PM |
| 40593 | 15.8 | 3.96 | 0 | 90 | 45 | 80 | 5.10 | -70 | 8 | 05/14/2025 04:45 PM |
| 40592 | 15.8 | 3.96 | 0 | 91 | 43 | 80 | 5.10 | -71 | 7 | 05/14/2025 04:30 PM |
| 40591 | 15.8 | 3.96 | 0 | 92 | 42 | 78 | 5.10 | -69 | 8 | 05/14/2025 04:00 PM |
| 40590 | 15.9 | 3.96 | 0 | 91 | 42 | 82 | 5.10 | -69 | 8 | 05/14/2025 03:45 PM |
| 40589 | 15.8 | 3.96 | 0 | 87 | 44 | 78 | 5.10 | -70 | 8 | 05/14/2025 03:30 PM |
| 40588 | 15.9 | 3.96 | 0 | 88 | 43 | 80 | 5.10 | -70 | 8 | 05/14/2025 03:15 PM |
| 40587 | 15.9 | 3.95 | 0 | 90 | 41 | 79 | 5.10 | -71 | 8 | 05/14/2025 03:00 PM |
| 40586 | 15.9 | 3.95 | 0 | 91 | 40 | 78 | 5.10 | -69 | 8 | 05/14/2025 02:45 PM |
| 40585 | 15.9 | 3.95 | 0 | 88 | 40 | 79 | 5.10 | -70 | 7 | 05/14/2025 02:30 PM |
| 40584 | 15.9 | 4.05 | 0 | 88 | 40 | 77 | 5.10 | -71 | 8 | 05/14/2025 02:15 PM |
| 40583 | 15.9 | 3.95 | 0 | 86 | 41 | 78 | 5.10 | -69 | 7 | 05/14/2025 02:00 PM |
| 40582 | 15.9 | 3.95 | 0 | 86 | 40 | 77 | 5.10 | -69 | 8 | 05/14/2025 01:45 PM |
| 40581 | 16.0 | 4.03 | 0 | 84 | 41 | 77 | 5.10 | -69 | 8 | 05/14/2025 01:30 PM |
| 40580 | 15.9 | 3.95 | 0 | 83 | 41 | 75 | 5.10 | -69 | 8 | 05/14/2025 01:15 PM |
| 40579 | 16.0 | 3.95 | 0 | 84 | 40 | 78 | 5.10 | -68 | 7 | 05/14/2025 01:00 PM |
| 40578 | 16.0 | 3.95 | 0 | 82 | 40 | 75 | 5.10 | -70 | 8 | 05/14/2025 12:45 PM |
| 40577 | 16.1 | 3.95 | 0 | 79 | 41 | 76 | 5.10 | -69 | 8 | 05/14/2025 12:30 PM |
| 40576 | 16.0 | 4.12 | 0 | 78 | 41 | 73 | 5.10 | -69 | 8 | 05/14/2025 12:15 PM |
| 40575 | 16.1 | 3.95 | 0 | 78 | 41 | 76 | 5.10 | -71 | 8 | 05/14/2025 12:00 PM |
| 40574 | 16.2 | 3.95 | 0 | 78 | 41 | 73 | 5.10 | -69 | 8 | 05/14/2025 11:45 AM |